User: anonymous   Login
Location: Oshawa
(43.9000°N, 78.8670°W)
Time: 08:26:40
(UTC-04:00)
Language:

Explorer 7 - Orbit

View from above orbital plane
View from above orbital plane
View from above satellite
View from above satellite

Ground track
Ground track

The orbit data is extracted from the following two-line orbital elements,

1 00022U 59009A   16177.19294886  .00000565  00000-0  67209-4 0  9990
2 00022  50.2848  73.9788 0143667 111.9386 249.6901 14.93538108  7988
Epoch (UTC): 25 June 2016 04:37:50
Eccentricity: 0.0143667
inclination: 50.2848°
perigee height: 487 km
apogee height: 687 km
right ascension of ascending node: 73.9788°
argument of perigee: 111.9386°
revolutions per day: 14.93538108
mean anomaly at epoch: 249.6901°
orbit number at epoch: 798

The dashed part of the orbit path shows where the satellite is in the earth's shadow,  

DLR